GW0819 Weather Reports


Display with metric or nautical units.
time (UTC)temp
F
wind
direction
speed
MPH
gust
MPH
rain 1hr
in
rain 24hr
in
rain mn
in
humidity
%
barometer
mb
20260904162115 88 281 12.0 19.0 0.00 0.00 0.00 36 1014.6
20260904161610 88 247 10.0 15.0 0.00 0.00 0.00 36 1014.6
20260904161105 87 264 13.0 15.0 0.00 0.00 0.00 36 1014.6
20260904160601 86 244 12.0 18.0 0.00 0.00 0.00 38 1014.6
20260904160057 86 264 13.0 17.0 0.00 0.00 0.00 37 1014.3
20260904155555 86 248 16.0 18.0 0.00 0.00 0.00 37 1014.3
20260904155050 86 249 10.0 14.0 0.00 0.00 0.00 38 1014.5
20260904154543 86 236 15.0 22.0 0.00 0.00 0.00 38 1014.3
20260904154038 85 250 15.0 21.0 0.00 0.00 0.00 38 1014.3
20260904153538 84 238 15.0 22.0 0.00 0.00 0.00 39 1014.0
20260904153034 85 236 15.0 18.0 0.00 0.00 0.00 38 1014.1
20260904152530 85 244 16.0 16.0 0.00 0.00 0.00 39 1014.5
20260904152026 84 231 13.0 18.0 0.00 0.00 0.00 40 1014.2
20260904151521 83 238 12.0 19.0 0.00 0.00 0.00 40 1014.3
20260904151021 83 249 13.0 18.0 0.00 0.00 0.00 41 1014.3
20260904150520 83 229 13.0 15.0 0.00 0.00 0.00 41 1014.2
20260904150015 82 234 9.0 11.0 0.00 0.00 0.00 43 1013.9
20260904145510 81 216 7.0 10.0 0.00 0.00 0.00 44 1014.2
20260904145005 81 238 9.0 11.0 0.00 0.00 0.00 45 1014.2
20260904144501 80 180 7.0 11.0 0.00 0.00 0.00 46 1014.2
20260904143956 80 197 8.0 9.0 0.00 0.00 0.00 47 1014.5
20260904143452 80 214 8.0 10.0 0.00 0.00 0.00 47 1014.2
20260904142949 80 203 8.0 12.0 0.00 0.00 0.00 46 1014.3
20260904142445 80 217 9.0 11.0 0.00 0.00 0.00 47 1014.2
20260904141944 80 184 7.0 11.0 0.00 0.00 0.00 48 1014.3
20260904141439 79 187 7.0 10.0 0.00 0.00 0.00 49 1014.2
20260904140936 77 173 7.0 7.0 0.00 0.00 0.00 50 1014.0
20260904140436 78 203 6.0 7.0 0.00 0.00 0.00 50 1013.9
20260904135935 77 201 5.0 6.0 0.00 0.00 0.00 50 1013.8
20260904135434 77 236 2.0 4.0 0.00 0.00 0.00 52 1013.4
20260904134931 76 252 3.0 5.0 0.00 0.00 0.00 53 1013.8
20260904134431 75 257 4.0 5.0 0.00 0.00 0.00 54 1013.8
20260904133925 74 253 3.0 3.0 0.00 0.00 0.00 55 1013.6
20260904133421 73 287 4.0 4.0 0.00 0.00 0.00 56 1013.6
20260904132916 72 300 3.0 3.0 0.00 0.00 0.00 57 1013.3
20260904132411 72 279 3.0 4.0 0.00 0.00 0.00 57 1013.6
20260904131910 72 272 0.0 2.0 0.00 0.00 0.00 58 1013.6
20260904131406 71 280 1.0 2.0 0.00 0.00 0.00 59 1013.4
20260904130901 71 214 0.0 1.0 0.00 0.00 0.00 59 1013.4
20260904130400 70 157 0.0 2.0 0.00 0.00 0.00 60 1013.2
20260904125855 69 179 3.0 4.0 0.00 0.00 0.00 61 1013.4
20260904125352 69 227 2.0 3.0 0.00 0.00 0.00 62 1013.3
20260904124850 69 237 3.0 4.0 0.00 0.00 0.00 63 1013.1
20260904124348 68 238 3.0 4.0 0.00 0.00 0.00 63 1012.9
20260904123842 68 225 3.0 4.0 0.00 0.00 0.00 63 1013.1
20260904123338 68 247 5.0 5.0 0.00 0.00 0.00 63 1013.0
20260904122833 68 241 5.0 5.0 0.00 0.00 0.00 63 1012.8
20260904122332 68 255 4.0 4.0 0.00 0.00 0.00 64 1012.9
20260904121827 68 248 4.0 5.0 0.00 0.00 0.00 63 1012.8
20260904121324 68 239 4.0 5.0 0.00 0.00 0.00 64 1012.9
20260904120820 67 231 3.0 4.0 0.00 0.00 0.00 64 1013.0
20260904120315 68 247 3.0 3.0 0.00 0.00 0.00 63 1012.6
20260904115810 68 231 3.0 4.0 0.00 0.00 0.00 63 1012.9
20260904115306 69 229 4.0 6.0 0.00 0.00 0.00 62 1012.9
20260904114806 69 222 4.0 5.0 0.00 0.00 0.00 62 1013.0
20260904114300 70 235 5.0 6.0 0.00 0.00 0.00 61 1012.9
20260904113755 69 244 4.0 5.0 0.00 0.00 0.00 62 1012.6
20260904113254 69 245 3.0 4.0 0.00 0.00 0.00 61 1012.8
20260904112749 70 249 5.0 6.0 0.00 0.00 0.00 61 1012.5
20260904112245 70 250 5.0 6.0 0.00 0.00 0.00 60 1012.8
20260904111741 70 248 6.0 8.0 0.00 0.00 0.00 60 1012.9
20260904111236 70 255 6.0 7.0 0.00 0.00 0.00 59 1013.0
20260904110732 70 252 6.0 7.0 0.00 0.00 0.00 59 1012.9
20260904110231 70 246 6.0 9.0 0.00 0.00 0.00 59 1012.9
20260904105726 71 240 5.0 6.0 0.00 0.00 0.00 58 1012.6
20260904105221 71 246 7.0 8.0 0.00 0.00 0.00 58 1012.8
20260904104716 72 255 7.0 9.0 0.00 0.00 0.00 57 1012.8
20260904104211 72 254 7.0 9.0 0.00 0.00 0.00 57 1012.9
20260904103708 72 252 8.0 10.0 0.00 0.00 0.00 57 1013.0
20260904103203 71 254 8.0 10.0 0.00 0.00 0.00 56 1012.9
20260904102659 72 252 7.0 9.0 0.00 0.00 0.00 56 1012.6
20260904102154 72 252 7.0 8.0 0.00 0.00 0.00 56 1012.6
20260904101651 72 249 8.0 9.0 0.00 0.00 0.00 56 1012.9
20260904101146 72 255 6.0 8.0 0.00 0.00 0.00 56 1012.8
20260904100642 73 248 8.0 10.0 0.00 0.00 0.00 55 1012.9
20260904100137 73 260 9.0 11.0 0.00 0.00 0.00 55 1012.9
20260904095636 72 250 8.0 10.0 0.00 0.00 0.00 55 1012.6
20260904095131 72 249 6.0 9.0 0.00 0.00 0.00 55 1012.8
20260904094626 73 249 8.0 9.0 0.00 0.00 0.00 54 1012.6
20260904094121 74 242 10.0 13.0 0.00 0.00 0.00 52 1012.6
20260904093618 75 235 9.0 12.0 0.00 0.00 0.00 51 1012.6
20260904093113 75 230 10.0 13.0 0.00 0.00 0.00 50 1012.9
20260904092609 75 229 11.0 12.0 0.00 0.00 0.00 51 1012.9
20260904092105 74 220 7.0 9.0 0.00 0.00 0.00 52 1012.5
20260904091601 75 216 7.0 9.0 0.00 0.00 0.00 51 1013.0
20260904091100 75 215 9.0 11.0 0.00 0.00 0.00 52 1012.6
20260904090556 75 212 8.0 11.0 0.00 0.00 0.00 51 1013.1
20260904090051 75 202 8.0 9.0 0.00 0.00 0.00 52 1012.8
20260904085546 75 204 8.0 9.0 0.00 0.00 0.00 52 1012.9
20260904085045 75 196 7.0 9.0 0.00 0.00 0.00 52 1012.9
20260904084541 75 200 7.0 10.0 0.00 0.00 0.00 52 1013.0
20260904084038 74 227 7.0 9.0 0.00 0.00 0.00 53 1012.9
20260904083533 74 231 8.0 9.0 0.00 0.00 0.00 54 1012.8
20260904083029 74 223 6.0 7.0 0.00 0.00 0.00 54 1012.8
20260904082524 74 214 5.0 5.0 0.00 0.00 0.00 54 1012.8
20260904082019 75 188 4.0 7.0 0.00 0.00 0.00 53 1012.6
20260904081514 75 168 5.0 7.0 0.00 0.00 0.00 53 1012.6
20260904081010 75 167 7.0 8.0 0.00 0.00 0.00 53 1012.6
20260904080505 75 162 9.0 11.0 0.00 0.00 0.00 53 1013.0
20260904080001 76 152 9.0 11.0 0.00 0.00 0.00 52 1012.9
20260904075457 75 153 10.0 11.0 0.00 0.00 0.00 52 1013.1
20260904074956 75 162 9.0 11.0 0.00 0.00 0.00 52 1013.1
20260904074451 75 136 9.0 10.0 0.00 0.00 0.00 53 1013.0
20260904073946 75 143 11.0 12.0 0.00 0.00 0.00 52 1013.1
20260904073441 76 147 12.0 13.0 0.00 0.00 0.00 52 1013.3
20260904072937 76 155 9.0 15.0 0.00 0.00 0.00 52 1013.2
20260904072432 76 150 11.0 12.0 0.00 0.00 0.00 52 1013.0
20260904071927 76 135 10.0 14.0 0.00 0.00 0.00 51 1013.1
20260904071423 76 129 8.0 13.0 0.00 0.00 0.00 51 1013.0
20260904070918 76 135 11.0 16.0 0.00 0.00 0.00 51 1012.9
20260904070416 76 134 13.0 17.0 0.00 0.00 0.00 51 1013.0
20260904065916 77 125 12.0 23.0 0.00 0.00 0.00 50 1013.3
20260904065413 77 139 11.0 17.0 0.00 0.00 0.00 50 1013.3
20260904064912 77 132 12.0 14.0 0.00 0.00 0.00 49 1013.3
20260904064409 77 138 11.0 13.0 0.00 0.00 0.00 49 1013.3
20260904063904 77 138 10.0 15.0 0.00 0.00 0.00 49 1013.3
20260904063401 77 129 10.0 14.0 0.00 0.00 0.00 48 1013.3
20260904062855 77 131 10.0 12.0 0.00 0.00 0.00 48 1013.2
20260904062351 78 129 9.0 13.0 0.00 0.00 0.00 47 1013.3
20260904061847 78 128 11.0 14.0 0.00 0.00 0.00 47 1013.2
20260904061343 78 124 9.0 13.0 0.00 0.00 0.00 46 1013.1
20260904060839 78 121 10.0 13.0 0.00 0.00 0.00 46 1013.2
20260904060335 78 120 9.0 14.0 0.00 0.00 0.00 45 1013.2
20260904055830 79 125 11.0 16.0 0.00 0.00 0.00 45 1013.0
20260904055325 79 129 11.0 16.0 0.00 0.00 0.00 44 1012.9
20260904054820 79 123 13.0 15.0 0.00 0.00 0.00 44 1013.2
20260904054316 79 112 12.0 16.0 0.00 0.00 0.00 43 1013.0
20260904053812 79 114 16.0 18.0 0.00 0.00 0.00 42 1013.1
20260904053311 80 119 16.0 18.0 0.00 0.00 0.00 42 1013.1
20260904052807 79 123 12.0 14.0 0.00 0.00 0.00 41 1013.1
20260904052306 79 117 9.0 10.0 0.00 0.00 0.00 42 1013.0
20260904051754 79 116 3.0 6.0 0.00 0.00 0.00 42 1013.2
20260904051249 79 98 4.0 6.0 0.00 0.00 0.00 42 1013.1
20260904050744 80 103 5.0 6.0 0.00 0.00 0.00 41 1012.9
20260904050240 80 116 3.0 3.0 0.00 0.00 0.00 41 1012.9
20260904045735 80 99 2.0 4.0 0.00 0.00 0.00 41 1013.0
20260904045230 80 99 4.0 5.0 0.00 0.00 0.00 41 1013.0
20260904044724 80 112 5.0 6.0 0.00 0.00 0.00 41 1013.0
20260904044221 80 126 5.0 6.0 0.00 0.00 0.00 41 1013.0
20260904043717 80 112 6.0 8.0 0.00 0.00 0.00 40 1013.1
20260904043213 80 120 7.0 9.0 0.00 0.00 0.00 41 1013.1
20260904042709 80 111 8.0 8.0 0.00 0.00 0.00 40 1013.1
20260904042205 80 86 13.0 13.0 0.00 0.00 0.00 40 1013.0
20260904041704 80 101 5.0 7.0 0.00 0.00 0.00 40 1012.8
20260904041201 80 99 4.0 5.0 0.00 0.00 0.00 40 1012.9
20260904040656 81 93 5.0 7.0 0.00 0.00 0.00 40 1013.2
20260904040152 81 99 5.0 9.0 0.00 0.00 0.00 41 1013.2
20260904035647 81 82 5.0 7.0 0.00 0.00 0.00 41 1013.2
20260904035143 81 103 4.0 6.0 0.00 0.00 0.00 40 1013.1
20260904034641 82 134 6.0 7.0 0.00 0.00 0.00 39 1012.9
20260904034137 82 154 5.0 7.0 0.00 0.00 0.00 39 1013.0
20260904033633 82 159 5.0 7.0 0.00 0.00 0.00 39 1013.0
20260904033130 82 184 4.0 6.0 0.00 0.00 0.00 40 1013.1
20260904032626 82 172 5.0 7.0 0.00 0.00 0.00 40 1013.0
20260904032125 82 160 7.0 9.0 0.00 0.00 0.00 40 1013.0
20260904031624 82 172 5.0 6.0 0.00 0.00 0.00 40 1012.9
20260904031120 82 225 7.0 10.0 0.00 0.00 0.00 40 1013.1
20260904030616 82 211 7.0 11.0 0.00 0.00 0.00 39 1013.0
20260904030111 82 209 13.0 15.0 0.00 0.00 0.00 40 1013.0
20260904025607 82 208 11.0 17.0 0.00 0.00 0.00 40 1012.6
20260904025101 82 217 13.0 17.0 0.00 0.00 0.00 40 1012.5
20260904024557 82 211 13.0 15.0 0.00 0.00 0.00 41 1012.4
20260904024053 82 196 15.0 16.0 0.00 0.00 0.00 40 1012.4
20260904023549 82 194 13.0 15.0 0.00 0.00 0.00 40 1012.4
20260904023044 82 189 15.0 19.0 0.00 0.00 0.00 40 1012.5
20260904022539 82 204 13.0 18.0 0.00 0.00 0.00 40 1012.3
20260904022036 83 213 17.0 21.0 0.00 0.00 0.00 40 1012.3
20260904021531 83 213 15.0 18.0 0.00 0.00 0.00 39 1012.3
20260904021026 84 191 13.0 15.0 0.00 0.00 0.00 38 1012.1
20260904020526 84 205 19.0 22.0 0.00 0.00 0.00 37 1012.1
20260904020021 84 216 13.0 18.0 0.00 0.00 0.00 36 1011.7
20260904015516 85 204 13.0 19.0 0.00 0.00 0.00 36 1012.0
20260904015014 86 207 16.0 24.0 0.00 0.00 0.00 35 1011.6
20260904014509 86 202 23.0 26.0 0.00 0.00 0.00 34 1011.6
20260904014005 88 201 25.0 33.0 0.00 0.00 0.00 32 1011.5
20260904013501 89 155 12.0 18.0 0.00 0.00 0.00 30 1010.9
20260904012957 89 157 12.0 16.0 0.00 0.00 0.00 30 1011.3
20260904012456 90 162 14.0 18.0 0.00 0.00 0.00 30 1011.1
20260904011950 90 155 13.0 18.0 0.00 0.00 0.00 30 1011.1
20260904011445 90 156 12.0 17.0 0.00 0.00 0.00 30 1011.2
20260904010941 90 153 8.0 13.0 0.00 0.00 0.00 29 1010.7
20260904010437 90 180 6.0 9.0 0.00 0.00 0.00 29 1011.2
20260904005931 90 182 7.0 9.0 0.00 0.00 0.00 29 1010.7
20260904005422 91 166 8.0 14.0 0.00 0.00 0.00 28 1010.8
20260904004922 91 164 12.0 16.0 0.00 0.00 0.00 28 1010.7
20260904004419 90 178 6.0 13.0 0.00 0.00 0.00 29 1010.6
20260904003919 91 194 13.0 15.0 0.00 0.00 0.00 29 1010.5
20260904003415 91 184 12.0 17.0 0.00 0.00 0.00 28 1010.7
20260904002909 92 194 13.0 16.0 0.00 0.00 0.00 28 1010.4
20260904002406 93 201 16.0 22.0 0.00 0.00 0.00 27 1010.8
20260904001904 93 183 15.0 22.0 0.00 0.00 0.00 27 1010.7
20260904001401 93 200 15.0 22.0 0.00 0.00 0.00 27 1010.7
20260904000855 93 204 18.0 20.0 0.00 0.00 0.00 27 1010.3
20260904000355 93 205 12.0 20.0 0.00 0.00 0.00 27 1010.8
20260903235855 93 190 15.0 19.0 0.00 0.00 0.00 27 1010.4
20260903235351 93 187 15.0 19.0 0.00 0.00 0.00 27 1010.3
20260903234850 93 203 15.0 19.0 0.00 0.00 0.00 27 1010.3
20260903234346 93 190 12.0 19.0 0.00 0.00 0.00 26 1010.1
20260903233842 94 198 15.0 19.0 0.00 0.00 0.00 26 1010.4
20260903233338 95 210 13.0 13.0 0.00 0.00 0.00 23 1010.1
20260903232837 94 232 9.0 15.0 0.00 0.00 0.00 23 1010.3
20260903232333 95 205 12.0 15.0 0.00 0.00 0.00 23 1009.8
20260903231832 96 182 9.0 14.0 0.00 0.00 0.00 22 1010.3
20260903231327 96 191 19.0 19.0 0.00 0.00 0.00 23 1010.1
20260903230823 96 171 10.0 16.0 0.00 0.00 0.00 23 1010.3
20260903230318 96 198 11.0 16.0 0.00 0.00 0.00 23 1010.1
20260903225814 96 206 7.0 17.0 0.00 0.00 0.00 23 1010.3
20260903225310 96 165 11.0 19.0 0.00 0.00 0.00 23 1010.1
20260903224806 96 190 11.0 16.0 0.00 0.00 0.00 23 1010.1
20260903224302 95 204 13.0 19.0 0.00 0.00 0.00 23 1010.3
20260903223757 95 199 16.0 17.0 0.00 0.00 0.00 24 1010.4
20260903223256 95 227 8.0 18.0 0.00 0.00 0.00 24 1010.4
20260903222751 96 226 7.0 9.0 0.00 0.00 0.00 23 1010.0
20260903222250 95 229 11.0 13.0 0.00 0.00 0.00 23 1010.0
20260903221745 96 245 12.0 13.0 0.00 0.00 0.00 23 1010.3
20260903221243 96 209 11.0 15.0 0.00 0.00 0.00 23 1010.3
20260903220742 97 187 11.0 14.0 0.00 0.00 0.00 22 1010.5
20260903220237 96 182 6.0 13.0 0.00 0.00 0.00 23 1010.5
20260903215730 96 246 4.0 11.0 0.00 0.00 0.00 23 1010.6
20260903215226 97 221 8.0 18.0 0.00 0.00 0.00 23 1010.7
20260903214724 97 199 6.0 10.0 0.00 0.00 0.00 23 1010.5
20260903214221 97 118 9.0 10.0 0.00 0.00 0.00 23 1010.7
20260903213714 96 191 7.0 12.0 0.00 0.00 0.00 23 1010.7
20260903213210 96 165 9.0 11.0 0.00 0.00 0.00 23 1010.7
20260903212706 95 215 4.0 11.0 0.00 0.00 0.00 24 1010.9
20260903212202 96 193 5.0 9.0 0.00 0.00 0.00 23 1010.8
20260903211655 96 132 7.0 12.0 0.00 0.00 0.00 23 1010.7
20260903211153 97 118 4.0 8.0 0.00 0.00 0.00 23 1010.9
20260903210648 96 184 9.0 15.0 0.00 0.00 0.00 23 1011.1
20260903210144 97 80 6.0 9.0 0.00 0.00 0.00 23 1010.8
20260903205643 96 204 3.0 6.0 0.00 0.00 0.00 22 1011.2
20260903205142 96 157 11.0 18.0 0.00 0.00 0.00 23 1011.3
20260903204638 97 158 11.0 13.0 0.00 0.00 0.00 22 1011.2
20260903204134 96 102 2.0 4.0 0.00 0.00 0.00 23 1011.2
20260903203629 97 150 5.0 8.0 0.00 0.00 0.00 23 1011.4
20260903203124 96 213 9.0 15.0 0.00 0.00 0.00 24 1011.6
20260903202619 95 246 5.0 6.0 0.00 0.00 0.00 24 1011.7
20260903202114 94 212 10.0 13.0 0.00 0.00 0.00 24 1011.5
20260903201609 95 228 11.0 11.0 0.00 0.00 0.00 24 1011.6
20260903201108 94 204 9.0 9.0 0.00 0.00 0.00 24 1011.7
20260903200602 94 202 15.0 18.0 0.00 0.00 0.00 24 1011.7
20260903200058 95 161 10.0 11.0 0.00 0.00 0.00 24 1011.8
20260903195548 97 185 4.0 12.0 0.00 0.00 0.00 23 1012.1
20260903195043 96 227 0.0 5.0 0.00 0.00 0.00 24 1011.8
20260903194533 95 265 7.0 8.0 0.00 0.00 0.00 24 1012.0
20260903194028 94 259 9.0 9.0 0.00 0.00 0.00 25 1012.0
20260903193525 94 231 4.0 10.0 0.00 0.00 0.00 25 1012.1
20260903193020 95 157 12.0 13.0 0.00 0.00 0.00 24 1012.4
20260903192517 96 211 11.0 18.0 0.00 0.00 0.00 24 1012.2
20260903192016 95 180 4.0 10.0 0.00 0.00 0.00 24 1012.5
20260903191513 96 212 16.0 22.0 0.00 0.00 0.00 23 1012.3
20260903191013 96 242 12.0 18.0 0.00 0.00 0.00 24 1012.5
20260903190506 96 120 3.0 10.0 0.00 0.00 0.00 24 1012.8
20260903190000 96 153 11.0 14.0 0.00 0.00 0.00 25 1012.8
20260903185456 97 185 11.0 11.0 0.00 0.00 0.00 24 1012.6
20260903184956 96 138 6.0 6.0 0.00 0.00 0.00 24 1012.9
20260903184448 96 212 5.0 6.0 0.00 0.00 0.00 25 1012.9
20260903183947 94 0 2.0 5.0 0.00 0.00 0.00 25 1013.2
20260903183441 95 255 9.0 11.0 0.00 0.00 0.00 24 1013.0
20260903182936 95 249 8.0 15.0 0.00 0.00 0.00 24 1013.3
20260903182435 95 220 13.0 18.0 0.00 0.00 0.00 24 1013.4
20260903181930 95 342 4.0 9.0 0.00 0.00 0.00 25 1013.4
20260903181425 94 23 0.0 6.0 0.00 0.00 0.00 25 1013.4
20260903180924 93 2 4.0 7.0 0.00 0.00 0.00 26 1013.8
20260903180419 93 318 3.0 7.0 0.00 0.00 0.00 26 1013.8
20260903175918 93 247 7.0 9.0 0.00 0.00 0.00 27 1013.9
20260903175413 94 233 8.0 11.0 0.00 0.00 0.00 26 1013.7
20260903174907 93 236 5.0 9.0 0.00 0.00 0.00 27 1013.7
20260903174403 93 291 6.0 13.0 0.00 0.00 0.00 27 1013.7
20260903173903 93 319 3.0 5.0 0.00 0.00 0.00 28 1013.8
20260903173358 92 258 11.0 17.0 0.00 0.00 0.00 29 1014.0
20260903172853 92 248 5.0 10.0 0.00 0.00 0.00 29 1014.0
20260903172348 92 238 12.0 17.0 0.00 0.00 0.00 29 1013.9
20260903171843 91 261 10.0 16.0 0.00 0.00 0.00 30 1013.9
20260903171339 91 233 10.0 17.0 0.00 0.00 0.00 30 1014.1
20260903170838 91 233 11.0 12.0 0.00 0.00 0.00 31 1014.0
20260903170333 92 233 13.0 14.0 0.00 0.00 0.00 31 1014.1
20260903165831 90 278 11.0 12.0 0.00 0.00 0.00 32 1014.1
20260903165331 90 233 12.0 19.0 0.00 0.00 0.00 33 1014.0
20260903164826 90 234 15.0 17.0 0.00 0.00 0.00 32 1014.2
20260903164321 88 250 11.0 19.0 0.00 0.00 0.00 34 1014.2
20260903163820 88 230 16.0 19.0 0.00 0.00 0.00 34 1014.0
20260903163317 88 257 12.0 19.0 0.00 0.00 0.00 34 1013.9
20260903162813 87 226 8.0 17.0 0.00 0.00 0.00 36 1014.0
20260903162309 87 229 13.0 19.0 0.00 0.00 0.00 35 1014.1